timestamp,surface_pressure_avg,surface_temp_avg,battery_voltage,lat,long
2018-05-28 00:00:00+00:00,337.4663,4.5,13.29,47.84626,-54.09684
2018-05-28 00:10:00+00:00,333.8613,4.5,13.21,47.84626,-54.09684
2018-05-28 00:20:00+00:00,334.108,4.4,13.21,47.84626,-54.09684
2018-05-28 00:30:00+00:00,332.478,4.4,13.21,47.84626,-54.09684
2018-05-28 00:40:00+00:00,325.1097,4.4,13.21,47.84626,-54.09684
2018-05-28 00:50:00+00:00,315.383,4.4,13.21,47.84626,-54.09684
2018-05-28 01:00:00+00:00,304.8846,4.4,13.13,47.84626,-54.09684
2018-05-28 01:10:00+00:00,294.3197,4.45,13.05,47.84626,-54.09684
2018-05-28 01:20:00+00:00,281.3231,4.5,13.05,47.84626,-54.09684
2018-05-28 01:30:00+00:00,272.4264,4.59,13.05,47.84626,-54.09684
2018-05-28 01:40:00+00:00,264.5097,4.6,13.13,47.84626,-54.09684
2018-05-28 01:50:00+00:00,255.9648,4.6,13.13,47.84626,-54.09684
2018-05-28 02:00:00+00:00,245.6831,4.6,13.05,47.84626,-54.09684
2018-05-28 02:10:00+00:00,241.3214,4.6,12.97,47.84626,-54.09684
2018-05-28 02:20:00+00:00,233.2947,4.6,13.05,47.84626,-54.09684
2018-05-28 02:30:00+00:00,222.6081,4.59,13.05,47.84626,-54.09684
2018-05-28 02:40:00+00:00,216.6298,4.56,13.05,47.84626,-54.09684
2018-05-28 02:50:00+00:00,213.1214,4.4,13.05,47.84626,-54.09684
2018-05-28 03:00:00+00:00,204.9031,4.4,12.97,47.84626,-54.09684
2018-05-28 03:10:00+00:00,197.0948,4.56,12.97,47.84626,-54.09684
2018-05-28 03:20:00+00:00,194.6264,4.7,12.97,47.84626,-54.09684
2018-05-28 03:30:00+00:00,191.1164,4.7,13.05,47.84626,-54.09684
2018-05-28 03:40:00+00:00,186.4348,4.7,13.05,47.84626,-54.09684
2018-05-28 03:50:00+00:00,185.8315,4.7,13.05,47.84626,-54.09684
2018-05-28 04:00:00+00:00,184.3865,4.7,12.97,47.84626,-54.09684
2018-05-28 04:10:00+00:00,182.3015,4.7,12.89,47.84626,-54.09684
2018-05-28 04:20:00+00:00,182.1431,4.7,12.97,47.84626,-54.09684
2018-05-28 04:30:00+00:00,181.8365,4.7,12.97,47.84626,-54.09684
2018-05-28 04:40:00+00:00,183.5148,4.69,12.97,47.84626,-54.09684
2018-05-28 04:50:00+00:00,183.9365,4.68,12.97,47.84626,-54.09684
2018-05-28 05:00:00+00:00,180.0431,4.7,12.97,47.84626,-54.09684
2018-05-28 05:10:00+00:00,179.7065,4.7,12.89,47.84626,-54.09684
2018-05-28 05:20:00+00:00,184.4598,4.7,12.97,47.84626,-54.09684
2018-05-28 05:30:00+00:00,185.4715,4.7,12.97,47.84626,-54.09684
2018-05-28 05:40:00+00:00,186.9231,4.7,12.97,47.84626,-54.09684
2018-05-28 05:50:00+00:00,191.8265,4.7,12.97,47.84626,-54.09684
2018-05-28 06:00:00+00:00,193.9631,4.7,12.89,47.84626,-54.09684
2018-05-28 06:10:00+00:00,195.0065,4.7,12.81,47.84626,-54.09684
2018-05-28 06:20:00+00:00,198.8531,4.7,12.89,47.84626,-54.09684
2018-05-28 06:30:00+00:00,201.6731,4.7,12.89,47.84626,-54.09684
2018-05-28 06:40:00+00:00,204.6881,4.7,12.97,47.84626,-54.09684
2018-05-28 06:50:00+00:00,208.7181,4.7,12.97,47.84626,-54.09684
2018-05-28 07:00:00+00:00,210.5947,4.7,12.89,47.84626,-54.09684
2018-05-28 07:10:00+00:00,213.7814,4.7,12.81,47.84626,-54.09684
2018-05-28 07:20:00+00:00,218.9698,4.7,12.89,47.84626,-54.09684
2018-05-28 07:30:00+00:00,222.0697,4.7,12.89,47.84626,-54.09684
2018-05-28 07:40:00+00:00,223.2231,4.7,12.89,47.84626,-54.09684
2018-05-28 07:50:00+00:00,226.2381,4.68,12.97,47.84626,-54.09684
2018-05-28 08:00:00+00:00,230.9131,4.6,12.89,47.84626,-54.09684
2018-05-28 08:10:00+00:00,236.0731,4.62,12.81,47.84626,-54.09684
2018-05-28 08:20:00+00:00,242.8597,4.69,12.89,47.84626,-54.09684
2018-05-28 08:30:00+00:00,249.9514,4.7,12.97,47.84626,-54.09684
2018-05-28 08:40:00+00:00,257.6481,4.7,12.97,47.84626,-54.09684
2018-05-28 08:50:00+00:00,265.4947,4.7,13.05,47.84626,-54.09684
2018-05-28 09:00:00+00:00,275.0831,4.7,13.05,47.84626,-54.09684
2018-05-28 09:10:00+00:00,283.0814,4.7,13.05,47.84626,-54.09684
2018-05-28 09:20:00+00:00,290.133,4.7,13.21,47.84626,-54.09684
2018-05-28 09:30:00+00:00,297.7513,4.7,13.37,47.84626,-54.09684
2018-05-28 09:40:00+00:00,304.5181,4.7,13.6,47.84626,-54.09684
2018-05-28 09:50:00+00:00,307.6163,4.7,13.84,47.84626,-54.09684
2018-05-28 10:00:00+00:00,310.2614,4.69,14.0,47.84626,-54.09684
2018-05-28 10:10:00+00:00,314.2764,4.64,14.16,47.84626,-54.09684
2018-05-28 10:20:00+00:00,317.2013,4.66,14.72,47.84626,-54.09684
2018-05-28 10:30:00+00:00,317.9813,4.6,15.11,47.84626,-54.09684
2018-05-28 10:40:00+00:00,322.3063,4.6,15.83,47.84626,-54.09684
2018-05-28 10:50:00+00:00,323.5147,4.6,15.75,47.84626,-54.09684
2018-05-28 11:00:00+00:00,322.2046,4.59,14.72,47.84626,-54.09684
2018-05-28 11:10:00+00:00,320.7664,4.59,14.64,47.84626,-54.09684
2018-05-28 11:20:00+00:00,321.7696,4.6,15.27,47.84626,-54.09684
2018-05-28 11:30:00+00:00,319.5513,4.6,14.88,47.84626,-54.09684
2018-05-28 11:40:00+00:00,317.5446,4.6,14.96,47.84626,-54.09684
2018-05-28 11:50:00+00:00,315.6213,4.6,14.96,47.84626,-54.09684
2018-05-28 12:00:00+00:00,311.553,4.6,14.72,47.84626,-54.09684
2018-05-28 12:10:00+00:00,306.5531,4.6,14.64,47.84626,-54.09684
2018-05-28 12:20:00+00:00,305.928,4.6,14.96,47.84626,-54.09684
2018-05-28 12:30:00+00:00,304.668,4.6,14.8,47.84626,-54.09684
2018-05-28 12:40:00+00:00,299.273,4.6,14.88,47.84626,-54.09684
2018-05-28 12:50:00+00:00,294.3796,4.62,14.88,47.84626,-54.09684
2018-05-28 13:00:00+00:00,291.7114,4.65,14.72,47.84626,-54.09684
2018-05-28 13:10:00+00:00,287.2347,4.68,14.64,47.84626,-54.09684
2018-05-28 13:20:00+00:00,278.3514,4.69,14.88,47.84626,-54.09684
2018-05-28 13:30:00+00:00,268.7097,4.7,14.8,47.84626,-54.09684
2018-05-28 13:40:00+00:00,262.3847,4.7,14.8,47.84626,-54.09684
2018-05-28 13:50:00+00:00,253.1964,4.7,14.8,47.84626,-54.09684
2018-05-28 14:00:00+00:00,241.5364,4.6,14.64,47.84626,-54.09684
2018-05-28 14:10:00+00:00,233.5315,4.6,14.64,47.84626,-54.09684
2018-05-28 14:20:00+00:00,227.7497,4.6,14.72,47.84626,-54.09684
2018-05-28 14:30:00+00:00,215.8431,4.7,14.72,47.84626,-54.09684
2018-05-28 14:40:00+00:00,204.8414,4.7,14.72,47.84626,-54.09684
2018-05-28 14:50:00+00:00,200.6514,4.7,14.72,47.84626,-54.09684
2018-05-28 15:00:00+00:00,195.2564,4.7,14.64,47.84626,-54.09684
2018-05-28 15:10:00+00:00,183.6348,4.7,14.56,47.84626,-54.09684
2018-05-28 15:20:00+00:00,177.2014,4.76,14.64,47.84626,-54.09684
2018-05-28 15:30:00+00:00,177.7415,4.7,14.64,47.84626,-54.09684
2018-05-28 15:40:00+00:00,173.6832,4.75,14.64,47.84626,-54.09684
2018-05-28 15:50:00+00:00,168.4932,4.8,14.64,47.84626,-54.09684
2018-05-28 16:00:00+00:00,168.0331,4.8,14.48,47.84626,-54.09684
2018-05-28 16:10:00+00:00,166.0498,4.79,14.48,47.84626,-54.09684
2018-05-28 16:20:00+00:00,162.3982,4.8,14.56,47.84626,-54.09684
2018-05-28 16:30:00+00:00,165.6665,4.72,14.56,47.84626,-54.09684
2018-05-28 16:40:00+00:00,169.5781,4.7,14.48,47.84626,-54.09684
2018-05-28 16:50:00+00:00,167.3115,4.7,14.48,47.84626,-54.09684
2018-05-28 17:00:00+00:00,167.9398,4.7,14.4,47.84626,-54.09684
2018-05-28 17:10:00+00:00,172.6315,4.69,14.32,47.84626,-54.09684
2018-05-28 17:20:00+00:00,173.3214,4.6,14.4,47.84626,-54.09684
2018-05-28 17:30:00+00:00,173.0265,4.67,14.32,47.84626,-54.09684
2018-05-28 17:40:00+00:00,179.0198,4.7,14.32,47.84626,-54.09684
2018-05-28 17:50:00+00:00,184.3781,4.69,14.32,47.84626,-54.09684
2018-05-28 18:00:00+00:00,185.6715,4.7,14.24,47.84626,-54.09684
2018-05-28 18:10:00+00:00,190.7132,4.7,14.08,47.84626,-54.09684
2018-05-28 18:20:00+00:00,196.9148,4.7,14.16,47.84626,-54.09684
2018-05-28 18:30:00+00:00,199.2882,4.7,14.16,47.84626,-54.09684
2018-05-28 18:40:00+00:00,204.9814,4.78,14.16,47.84626,-54.09684
2018-05-28 18:50:00+00:00,212.7264,4.8,14.16,47.84626,-54.09684
2018-05-28 19:00:00+00:00,215.1214,4.88,14.08,47.84626,-54.09684
2018-05-28 19:10:00+00:00,219.5247,4.93,14.0,47.84626,-54.09684
2018-05-28 19:20:00+00:00,226.7631,5.0,14.0,47.84626,-54.09684
2018-05-28 19:30:00+00:00,231.3564,5.0,14.08,47.84626,-54.09684
2018-05-28 19:40:00+00:00,234.3681,5.0,14.08,47.84626,-54.09684
2018-05-28 19:50:00+00:00,244.1248,5.0,14.08,47.84626,-54.09684
2018-05-28 20:00:00+00:00,254.5797,5.06,14.0,47.84626,-54.09684
2018-05-28 20:10:00+00:00,258.2614,5.1,13.92,47.84626,-54.09684
2018-05-28 20:20:00+00:00,261.9497,5.1,14.0,47.84626,-54.09684
2018-05-28 20:30:00+00:00,274.1014,5.11,14.0,47.84626,-54.09684
2018-05-28 20:40:00+00:00,285.763,5.15,14.0,47.84626,-54.09684
2018-05-28 20:50:00+00:00,288.9247,5.2,14.0,47.84626,-54.09684
2018-05-28 21:00:00+00:00,293.7447,5.2,13.92,47.84626,-54.09684
2018-05-28 21:10:00+00:00,305.7047,5.2,13.84,47.84626,-54.09684
2018-05-28 21:20:00+00:00,314.968,5.2,13.92,47.84626,-54.09684
2018-05-28 21:30:00+00:00,318.4864,5.21,13.84,47.84626,-54.09684
2018-05-28 21:40:00+00:00,323.093,5.27,13.92,47.84626,-54.09684
2018-05-28 21:50:00+00:00,332.778,5.29,13.92,47.84626,-54.09684
2018-05-28 22:00:00+00:00,340.7147,5.3,13.84,47.84626,-54.09684
2018-05-28 22:10:00+00:00,341.3829,5.3,13.68,47.84626,-54.09684
2018-05-28 22:20:00+00:00,341.4863,5.3,13.68,47.84626,-54.09684
2018-05-28 22:30:00+00:00,346.5797,5.3,13.68,47.84626,-54.09684
2018-05-28 22:40:00+00:00,348.5613,5.29,13.68,47.84626,-54.09684
2018-05-28 22:50:00+00:00,347.5114,5.26,13.68,47.84626,-54.09684
2018-05-28 23:00:00+00:00,348.1179,5.26,13.6,47.84626,-54.09684
2018-05-28 23:10:00+00:00,348.2896,5.28,13.44,47.84626,-54.09684
2018-05-28 23:20:00+00:00,345.7396,5.29,13.44,47.84626,-54.09684
2018-05-28 23:30:00+00:00,344.5647,5.3,13.37,47.84626,-54.09684
2018-05-28 23:40:00+00:00,343.8397,5.3,13.37,47.84626,-54.09684
2018-05-28 23:50:00+00:00,340.2679,5.3,13.37,47.84626,-54.09684
